Time,TemperatureF,DewpointF,PressureIn,WindDirection,WindDirectionDegrees,WindSpeedMPH,WindSpeedGustMPH,Humidity,HourlyPrecipIn,Conditions,Clouds,dailyrainin,SoftwareType,DateUTC
2013-01-25 00:00:00,5.2,-4.6,30.37,ENE,59,1.0,5.0,63,0.00,,,0.00,WeatherCatV1.00B22,2013-01-25 05:00:00,
2013-01-25 00:05:00,5.3,-4.8,30.38,NE,36,0.0,1.0,62,0.00,,,0.00,WeatherCatV1.00B22,2013-01-25 05:05:00,
2013-01-25 00:10:00,5.2,-4.6,30.37,NNE,30,2.0,3.0,63,0.00,,,0.00,WeatherCatV1.00B22,2013-01-25 05:10:00,
2013-01-25 00:15:00,5.1,-4.4,30.36,NNW,340,3.0,4.0,64,0.00,,,0.00,WeatherCatV1.00B22,2013-01-25 05:15:00,
2013-01-25 00:20:00,5.1,-4.4,30.36,NNW,340,2.0,4.0,64,0.00,,,0.00,WeatherCatV1.00B22,2013-01-25 05:20:00,
2013-01-25 00:25:00,5.0,-3.8,30.36,NNW,340,0.0,1.0,66,0.00,,,0.00,WeatherCatV1.00B22,2013-01-25 05:25:00,
2013-01-25 00:30:00,4.7,-4.8,30.37,NNE,20,3.0,3.0,64,0.00,,,0.00,WeatherCatV1.00B22,2013-01-25 05:30:00,
2013-01-25 00:35:00,4.7,-4.4,30.37,NNE,28,0.0,1.0,65,0.00,,,0.00,WeatherCatV1.00B22,2013-01-25 05:35:00,
2013-01-25 00:40:00,4.7,-4.4,30.37,NNE,28,0.0,0.0,65,0.00,,,0.00,WeatherCatV1.00B22,2013-01-25 05:40:00,
2013-01-25 00:45:00,4.5,-4.3,30.37,NNE,28,3.0,3.0,66,0.00,,,0.00,WeatherCatV1.00B22,2013-01-25 05:45:00,
2013-01-25 00:50:00,4.4,-4.4,30.37,NNE,28,3.0,3.0,66,0.00,,,0.00,WeatherCatV1.00B22,2013-01-25 05:50:00,
2013-01-25 00:55:00,4.4,-3.8,30.36,NNE,28,1.0,3.0,68,0.00,,,0.00,WeatherCatV1.00B22,2013-01-25 05:55:00,
2013-01-25 01:00:00,4.2,-4.6,30.37,NNE,28,2.0,3.0,66,0.00,,,0.00,WeatherCatV1.00B22,2013-01-25 06:00:00,
2013-01-25 01:05:00,4.1,-4.7,30.37,NNE,28,1.0,2.0,66,0.00,,,0.00,WeatherCatV1.00B22,2013-01-25 06:05:00,
2013-01-25 01:10:00,4.0,-4.5,30.37,NNE,28,0.0,0.0,67,0.00,,,0.00,WeatherCatV1.00B22,2013-01-25 06:10:00,
2013-01-25 01:15:00,3.8,-4.4,30.37,NNE,28,0.0,1.0,68,0.00,,,0.00,WeatherCatV1.00B22,2013-01-25 06:15:00,
2013-01-25 01:20:00,3.7,-4.5,30.37,NNE,28,0.0,1.0,68,0.00,,,0.00,WeatherCatV1.00B22,2013-01-25 06:20:00,
2013-01-25 01:25:00,3.6,-4.3,30.38,NNE,28,0.0,1.0,69,0.00,,,0.00,WeatherCatV1.00B22,2013-01-25 06:25:00,
2013-01-25 01:30:00,3.5,-4.4,30.38,NNE,28,0.0,1.0,69,0.00,,,0.00,WeatherCatV1.00B22,2013-01-25 06:30:00,
2013-01-25 01:35:00,3.4,-4.7,30.38,NNE,28,1.0,1.0,68,0.00,,,0.00,WeatherCatV1.00B22,2013-01-25 06:35:00,
2013-01-25 01:40:00,3.5,-4.7,30.39,NNE,28,0.0,0.0,68,0.00,,,0.00,WeatherCatV1.00B22,2013-01-25 06:40:00,
2013-01-25 01:45:00,3.5,-4.4,30.39,NNE,28,1.0,1.0,69,0.00,,,0.00,WeatherCatV1.00B22,2013-01-25 06:45:00,
2013-01-25 01:50:00,3.4,-4.4,30.39,NNE,28,0.0,0.0,69,0.00,,,0.00,WeatherCatV1.00B22,2013-01-25 06:50:00,
2013-01-25 01:55:00,3.3,-4.2,30.39,NNE,28,2.0,2.0,70,0.00,,,0.00,WeatherCatV1.00B22,2013-01-25 06:55:00,
2013-01-25 02:00:00,3.3,-4.2,30.39,NNE,28,2.0,2.0,70,0.00,,,0.00,WeatherCatV1.00B22,2013-01-25 07:00:00,
2013-01-25 02:05:00,3.3,-4.5,30.40,NNE,28,1.0,3.0,69,0.00,,,0.00,WeatherCatV1.00B22,2013-01-25 07:05:00,
2013-01-25 02:10:00,3.3,-4.2,30.40,NNE,28,1.0,2.0,70,0.00,,,0.00,WeatherCatV1.00B22,2013-01-25 07:10:00,
2013-01-25 02:15:00,3.3,-4.2,30.39,NNE,28,0.0,1.0,70,0.00,,,0.00,WeatherCatV1.00B22,2013-01-25 07:15:00,
2013-01-25 02:20:00,3.5,-4.4,30.39,NNE,28,1.0,2.0,69,0.00,,,0.00,WeatherCatV1.00B22,2013-01-25 07:20:00,
2013-01-25 02:25:00,3.7,-4.8,30.39,NNE,28,1.0,2.0,67,0.00,,,0.00,WeatherCatV1.00B22,2013-01-25 07:25:00,
2013-01-25 02:30:00,3.9,-4.6,30.39,NNE,28,1.0,2.0,67,0.00,,,0.00,WeatherCatV1.00B22,2013-01-25 07:30:00,
2013-01-25 02:35:00,3.8,-4.4,30.38,NNE,28,1.0,1.0,68,0.00,,,0.00,WeatherCatV1.00B22,2013-01-25 07:35:00,
2013-01-25 02:40:00,3.6,-4.6,30.38,NNE,28,3.0,3.0,68,0.00,,,0.00,WeatherCatV1.00B22,2013-01-25 07:40:00,
2013-01-25 02:45:00,3.6,-4.6,30.38,NNE,28,0.0,2.0,68,0.00,,,0.00,WeatherCatV1.00B22,2013-01-25 07:45:00,
2013-01-25 02:50:00,3.5,-4.7,30.38,NNE,28,0.0,0.0,68,0.00,,,0.00,WeatherCatV1.00B22,2013-01-25 07:50:00,
2013-01-25 02:55:00,3.3,-4.8,30.39,NNE,28,0.0,2.0,68,0.00,,,0.00,WeatherCatV1.00B22,2013-01-25 07:55:00,
2013-01-25 03:00:00,3.4,-4.7,30.39,NNE,28,0.0,3.0,68,0.00,,,0.00,WeatherCatV1.00B22,2013-01-25 08:00:00,
2013-01-25 03:05:00,3.4,-5.1,30.39,NNE,28,0.0,2.0,67,0.00,,,0.00,WeatherCatV1.00B22,2013-01-25 08:05:00,
2013-01-25 03:10:00,3.4,-4.7,30.39,NNE,28,1.0,2.0,68,0.00,,,0.00,WeatherCatV1.00B22,2013-01-25 08:10:00,
2013-01-25 03:15:00,3.4,-4.7,30.39,NNE,28,1.0,2.0,68,0.00,,,0.00,WeatherCatV1.00B22,2013-01-25 08:15:00,
2013-01-25 03:20:00,3.3,-4.8,30.39,NNE,28,1.0,1.0,68,0.00,,,0.00,WeatherCatV1.00B22,2013-01-25 08:20:00,
2013-01-25 03:25:00,3.3,-5.2,30.39,NNE,28,1.0,2.0,67,0.00,,,0.00,WeatherCatV1.00B22,2013-01-25 08:25:00,
2013-01-25 03:30:00,3.4,-5.1,30.39,NNE,28,1.0,1.0,67,0.00,,,0.00,WeatherCatV1.00B22,2013-01-25 08:30:00,
2013-01-25 03:35:00,3.5,-5.3,30.39,NNE,28,0.0,2.0,66,0.00,,,0.00,WeatherCatV1.00B22,2013-01-25 08:35:00,
2013-01-25 03:40:00,3.5,-5.0,30.40,NNE,28,0.0,2.0,67,0.00,,,0.00,WeatherCatV1.00B22,2013-01-25 08:40:00,
2013-01-25 03:45:00,3.4,-5.1,30.40,NNE,28,1.0,2.0,67,0.00,,,0.00,WeatherCatV1.00B22,2013-01-25 08:45:00,
2013-01-25 03:50:00,3.4,-5.1,30.40,NNE,28,0.0,0.0,67,0.00,,,0.00,WeatherCatV1.00B22,2013-01-25 08:50:00,
2013-01-25 03:55:00,3.3,-5.2,30.40,NNE,28,1.0,2.0,67,0.00,,,0.00,WeatherCatV1.00B22,2013-01-25 08:55:00,
2013-01-25 04:00:00,3.3,-5.2,30.40,NNE,28,2.0,2.0,67,0.00,,,0.00,WeatherCatV1.00B22,2013-01-25 09:00:00,
2013-01-25 04:05:00,3.2,-5.2,30.39,NNE,28,0.0,1.0,67,0.00,,,0.00,WeatherCatV1.00B22,2013-01-25 09:05:00,
2013-01-25 04:10:00,3.1,-5.3,30.40,NNE,28,0.0,1.0,67,0.00,,,0.00,WeatherCatV1.00B22,2013-01-25 09:10:00,
2013-01-25 04:15:00,3.1,-5.3,30.39,NNE,28,0.0,0.0,67,0.00,,,0.00,WeatherCatV1.00B22,2013-01-25 09:15:00,
2013-01-25 04:20:00,2.8,-5.3,30.39,NW,313,1.0,2.0,68,0.00,,,0.00,WeatherCatV1.00B22,2013-01-25 09:20:00,
2013-01-25 04:25:00,2.7,-5.4,30.39,NW,313,0.0,0.0,68,0.00,,,0.00,WeatherCatV1.00B22,2013-01-25 09:25:00,
2013-01-25 04:30:00,2.5,-5.3,30.40,NW,313,0.0,0.0,69,0.00,,,0.00,WeatherCatV1.00B22,2013-01-25 09:30:00,
2013-01-25 04:35:00,2.3,-5.2,30.39,NW,313,0.0,0.0,70,0.00,,,0.00,WeatherCatV1.00B22,2013-01-25 09:35:00,
2013-01-25 04:40:00,2.1,-5.4,30.39,NW,313,0.0,0.0,70,0.00,,,0.00,WeatherCatV1.00B22,2013-01-25 09:40:00,
2013-01-25 04:45:00,2.0,-5.5,30.40,NW,313,0.0,1.0,70,0.00,,,0.00,WeatherCatV1.00B22,2013-01-25 09:45:00,
2013-01-25 04:50:00,1.9,-5.3,30.39,NW,313,0.0,1.0,71,0.00,,,0.00,WeatherCatV1.00B22,2013-01-25 09:50:00,
2013-01-25 04:55:00,1.7,-5.5,30.40,NW,313,0.0,1.0,71,0.00,,,0.00,WeatherCatV1.00B22,2013-01-25 09:55:00,
2013-01-25 05:00:00,1.5,-5.4,30.40,NW,313,0.0,1.0,72,0.00,,,0.00,WeatherCatV1.00B22,2013-01-25 10:00:00,
2013-01-25 05:05:00,1.4,-5.5,30.40,NW,313,0.0,0.0,72,0.00,,,0.00,WeatherCatV1.00B22,2013-01-25 10:05:00,
2013-01-25 05:10:00,1.3,-5.3,30.40,NW,313,0.0,0.0,73,0.00,,,0.00,WeatherCatV1.00B22,2013-01-25 10:10:00,
2013-01-25 05:15:00,1.1,-5.5,30.40,NW,313,0.0,0.0,73,0.00,,,0.00,WeatherCatV1.00B22,2013-01-25 10:15:00,
2013-01-25 05:20:00,0.9,-5.4,30.40,NW,313,0.0,1.0,74,0.00,,,0.00,WeatherCatV1.00B22,2013-01-25 10:20:00,
2013-01-25 05:25:00,0.8,-5.5,30.41,NW,313,0.0,0.0,74,0.00,,,0.00,WeatherCatV1.00B22,2013-01-25 10:25:00,
2013-01-25 05:30:00,0.8,-5.5,30.41,NW,313,0.0,0.0,74,0.00,,,0.00,WeatherCatV1.00B22,2013-01-25 10:30:00,
2013-01-25 05:35:00,0.7,-5.6,30.41,NW,313,0.0,0.0,74,0.00,,,0.00,WeatherCatV1.00B22,2013-01-25 10:35:00,
2013-01-25 05:40:00,0.6,-5.4,30.40,NW,313,1.0,1.0,75,0.00,,,0.00,WeatherCatV1.00B22,2013-01-25 10:40:00,
2013-01-25 05:45:00,0.6,-5.7,30.41,NW,313,0.0,1.0,74,0.00,,,0.00,WeatherCatV1.00B22,2013-01-25 10:45:00,
2013-01-25 05:50:00,0.6,-5.7,30.40,NW,313,0.0,0.0,74,0.00,,,0.00,WeatherCatV1.00B22,2013-01-25 10:50:00,
2013-01-25 05:55:00,0.6,-5.7,30.40,NW,313,0.0,0.0,74,0.00,,,0.00,WeatherCatV1.00B22,2013-01-25 10:55:00,
2013-01-25 06:00:00,0.6,-5.7,30.41,NW,313,0.0,0.0,74,0.00,,,0.00,WeatherCatV1.00B22,2013-01-25 11:00:00,
2013-01-25 06:05:00,0.5,-5.8,30.41,NW,313,0.0,0.0,74,0.00,,,0.00,WeatherCatV1.00B22,2013-01-25 11:05:00,
2013-01-25 06:10:00,0.4,-5.6,30.41,NW,313,0.0,0.0,75,0.00,,,0.00,WeatherCatV1.00B22,2013-01-25 11:10:00,
2013-01-25 06:15:00,0.2,-5.8,30.41,NW,313,0.0,0.0,75,0.00,,,0.00,WeatherCatV1.00B22,2013-01-25 11:15:00,
2013-01-25 06:20:00,0.3,-5.7,30.41,NW,313,0.0,0.0,75,0.00,,,0.00,WeatherCatV1.00B22,2013-01-25 11:20:00,
2013-01-25 06:25:00,0.3,-5.7,30.41,NW,313,0.0,0.0,75,0.00,,,0.00,WeatherCatV1.00B22,2013-01-25 11:25:00,
2013-01-25 06:30:00,0.3,-5.7,30.41,NW,313,0.0,0.0,75,0.00,,,0.00,WeatherCatV1.00B22,2013-01-25 11:30:00,
2013-01-25 06:35:00,0.2,-5.8,30.41,NW,313,0.0,0.0,75,0.00,,,0.00,WeatherCatV1.00B22,2013-01-25 11:35:00,
2013-01-25 06:40:00,0.1,-5.9,30.41,NW,313,0.0,0.0,75,0.00,,,0.00,WeatherCatV1.00B22,2013-01-25 11:40:00,
2013-01-25 06:45:00,0.1,-5.9,30.41,NW,313,0.0,0.0,75,0.00,,,0.00,WeatherCatV1.00B22,2013-01-25 11:45:00,
2013-01-25 06:50:00,0.0,-6.0,30.41,NW,313,0.0,0.0,75,0.00,,,0.00,WeatherCatV1.00B22,2013-01-25 11:50:00,
2013-01-25 06:55:00,0.0,-5.7,30.41,NW,313,0.0,0.0,76,0.00,,,0.00,WeatherCatV1.00B22,2013-01-25 11:55:00,
2013-01-25 07:00:00,-0.1,-5.8,30.41,NW,313,0.0,0.0,76,0.00,,,0.00,WeatherCatV1.00B22,2013-01-25 12:00:00,
2013-01-25 07:05:00,-0.2,-5.9,30.41,NW,313,0.0,0.0,76,0.00,,,0.00,WeatherCatV1.00B22,2013-01-25 12:05:00,
2013-01-25 07:10:00,-0.1,-5.8,30.42,NW,313,0.0,0.0,76,0.00,,,0.00,WeatherCatV1.00B22,2013-01-25 12:10:00,
2013-01-25 07:15:00,0.1,-5.9,30.42,NW,313,0.0,1.0,75,0.00,,,0.00,WeatherCatV1.00B22,2013-01-25 12:15:00,
2013-01-25 07:20:00,0.2,-5.8,30.42,NW,313,1.0,1.0,75,0.00,,,0.00,WeatherCatV1.00B22,2013-01-25 12:20:00,
2013-01-25 07:25:00,0.3,-5.7,30.42,NW,313,0.0,0.0,75,0.00,,,0.00,WeatherCatV1.00B22,2013-01-25 12:25:00,
2013-01-25 07:30:00,0.5,-5.8,30.42,NW,313,0.0,0.0,74,0.00,,,0.00,WeatherCatV1.00B22,2013-01-25 12:30:00,
2013-01-25 07:35:00,0.6,-5.7,30.43,NW,313,0.0,0.0,74,0.00,,,0.00,WeatherCatV1.00B22,2013-01-25 12:35:00,
2013-01-25 07:40:00,0.6,-5.7,30.42,NW,313,0.0,0.0,74,0.00,,,0.00,WeatherCatV1.00B22,2013-01-25 12:40:00,
2013-01-25 07:45:00,0.7,-5.6,30.42,NW,313,0.0,0.0,74,0.00,,,0.00,WeatherCatV1.00B22,2013-01-25 12:45:00,
2013-01-25 07:50:00,0.8,-5.5,30.42,NW,313,0.0,0.0,74,0.00,,,0.00,WeatherCatV1.00B22,2013-01-25 12:50:00,
2013-01-25 07:55:00,1.0,-5.3,30.42,NW,313,0.0,1.0,74,0.00,,,0.00,WeatherCatV1.00B22,2013-01-25 12:55:00,
2013-01-25 08:00:00,1.1,-5.5,30.42,NW,313,0.0,0.0,73,0.00,,,0.00,WeatherCatV1.00B22,2013-01-25 13:00:00,
2013-01-25 08:05:00,1.3,-5.0,30.42,NW,313,0.0,0.0,74,0.00,,,0.00,WeatherCatV1.00B22,2013-01-25 13:05:00,
2013-01-25 08:10:00,1.5,-4.8,30.42,NW,313,0.0,0.0,74,0.00,,,0.00,WeatherCatV1.00B22,2013-01-25 13:10:00,
2013-01-25 08:15:00,1.6,-5.0,30.42,NW,313,0.0,1.0,73,0.00,,,0.00,WeatherCatV1.00B22,2013-01-25 13:15:00,
2013-01-25 08:20:00,1.8,-4.8,30.42,NW,313,1.0,2.0,73,0.00,,,0.00,WeatherCatV1.00B22,2013-01-25 13:20:00,
2013-01-25 08:25:00,1.8,-4.8,30.42,NW,313,0.0,1.0,73,0.00,,,0.00,WeatherCatV1.00B22,2013-01-25 13:25:00,
2013-01-25 08:30:00,1.8,-4.8,30.42,NW,313,1.0,2.0,73,0.00,,,0.00,WeatherCatV1.00B22,2013-01-25 13:30:00,
2013-01-25 08:35:00,1.9,-4.4,30.42,NW,313,0.0,1.0,74,0.00,,,0.00,WeatherCatV1.00B22,2013-01-25 13:35:00,
2013-01-25 08:40:00,2.0,-4.3,30.42,NW,313,0.0,1.0,74,0.00,,,0.00,WeatherCatV1.00B22,2013-01-25 13:40:00,
2013-01-25 08:45:00,2.0,-4.6,30.42,NW,313,0.0,0.0,73,0.00,,,0.00,WeatherCatV1.00B22,2013-01-25 13:45:00,
2013-01-25 08:50:00,2.4,-4.5,30.43,North,349,1.0,2.0,72,0.00,,,0.00,WeatherCatV1.00B22,2013-01-25 13:50:00,
2013-01-25 08:55:00,2.7,-4.2,30.42,North,350,1.0,2.0,72,0.00,,,0.00,WeatherCatV1.00B22,2013-01-25 13:55:00,
2013-01-25 09:00:00,3.1,-3.9,30.42,NNW,348,1.0,3.0,72,0.00,,,0.00,WeatherCatV1.00B22,2013-01-25 14:00:00,
2013-01-25 09:05:00,3.5,-3.5,30.42,NNW,348,2.0,2.0,72,0.00,,,0.00,WeatherCatV1.00B22,2013-01-25 14:05:00,
2013-01-25 09:10:00,3.8,-3.5,30.42,NNW,348,1.0,3.0,71,0.00,,,0.00,WeatherCatV1.00B22,2013-01-25 14:10:00,
2013-01-25 09:15:00,4.0,-3.9,30.42,NNW,333,1.0,3.0,69,0.00,,,0.00,WeatherCatV1.00B22,2013-01-25 14:15:00,
2013-01-25 09:20:00,4.1,-4.1,30.42,NNW,334,0.0,2.0,68,0.00,,,0.00,WeatherCatV1.00B22,2013-01-25 14:20:00,
2013-01-25 09:25:00,4.5,-4.3,30.42,NNE,15,1.0,4.0,66,0.00,,,0.00,WeatherCatV1.00B22,2013-01-25 14:25:00,
2013-01-25 09:30:00,4.9,-4.2,30.42,NNW,336,2.0,3.0,65,0.00,,,0.00,WeatherCatV1.00B22,2013-01-25 14:30:00,
2013-01-25 09:35:00,5.0,-2.3,30.42,NW,307,2.0,3.0,71,0.00,,,0.00,WeatherCatV1.00B22,2013-01-25 14:35:00,
2013-01-25 09:40:00,5.3,-4.5,30.42,NNE,17,2.0,5.0,63,0.00,,,0.00,WeatherCatV1.00B22,2013-01-25 14:40:00,
2013-01-25 09:45:00,5.4,-4.1,30.42,NNE,26,0.0,3.0,64,0.00,,,0.00,WeatherCatV1.00B22,2013-01-25 14:45:00,
2013-01-25 09:50:00,5.6,-4.2,30.42,NNW,337,2.0,4.0,63,0.00,,,0.00,WeatherCatV1.00B22,2013-01-25 14:50:00,
2013-01-25 09:55:00,5.4,-4.4,30.42,NNW,336,1.0,1.0,63,0.00,,,0.00,WeatherCatV1.00B22,2013-01-25 14:55:00,
2013-01-25 10:00:00,5.5,-4.3,30.41,NNW,327,1.0,2.0,63,0.00,,,0.00,WeatherCatV1.00B22,2013-01-25 15:00:00,
2013-01-25 10:05:00,5.8,-3.7,30.41,NE,35,0.0,4.0,64,0.00,,,0.00,WeatherCatV1.00B22,2013-01-25 15:05:00,
2013-01-25 10:10:00,6.1,-3.8,30.41,NE,38,0.0,3.0,63,0.00,,,0.00,WeatherCatV1.00B22,2013-01-25 15:10:00,
2013-01-25 10:15:00,6.2,-3.7,30.41,NE,38,2.0,3.0,63,0.00,,,0.00,WeatherCatV1.00B22,2013-01-25 15:15:00,
2013-01-25 10:20:00,6.3,-3.9,30.40,NNE,19,2.0,3.0,62,0.00,,,0.00,WeatherCatV1.00B22,2013-01-25 15:20:00,
2013-01-25 10:25:00,6.3,-4.2,30.40,NE,38,2.0,4.0,61,0.00,,,0.00,WeatherCatV1.00B22,2013-01-25 15:25:00,
2013-01-25 10:30:00,6.4,-4.1,30.39,NE,38,0.0,0.0,61,0.00,,,0.00,WeatherCatV1.00B22,2013-01-25 15:30:00,
2013-01-25 10:35:00,6.7,-3.9,30.39,NNE,32,2.0,5.0,61,0.00,,,0.00,WeatherCatV1.00B22,2013-01-25 15:35:00,
2013-01-25 10:40:00,6.9,-3.7,30.39,NE,53,1.0,6.0,61,0.00,,,0.00,WeatherCatV1.00B22,2013-01-25 15:40:00,
2013-01-25 10:45:00,7.2,-3.0,30.38,NNE,12,4.0,5.0,62,0.00,,,0.00,WeatherCatV1.00B22,2013-01-25 15:45:00,
2013-01-25 10:50:00,7.4,-3.2,30.38,NNE,12,0.0,2.0,61,0.00,,,0.00,WeatherCatV1.00B22,2013-01-25 15:50:00,
2013-01-25 10:55:00,7.6,-3.3,30.38,NE,38,1.0,2.0,60,0.00,,,0.00,WeatherCatV1.00B22,2013-01-25 15:55:00,
2013-01-25 11:00:00,7.8,-2.8,30.37,NE,47,2.0,6.0,61,0.00,,,0.00,WeatherCatV1.00B22,2013-01-25 16:00:00,
2013-01-25 11:05:00,7.8,-3.5,30.38,NNE,26,3.0,4.0,59,0.00,,,0.00,WeatherCatV1.00B22,2013-01-25 16:05:00,
2013-01-25 11:10:00,8.0,-3.0,30.38,NNW,346,0.0,3.0,60,0.00,,,0.00,WeatherCatV1.00B22,2013-01-25 16:10:00,
2013-01-25 11:15:00,8.5,-2.8,30.38,North,5,2.0,4.0,59,0.00,,,0.00,WeatherCatV1.00B22,2013-01-25 16:15:00,
2013-01-25 11:20:00,9.0,-2.7,30.37,WNW,294,0.0,3.0,58,0.00,,,0.00,WeatherCatV1.00B22,2013-01-25 16:20:00,
2013-01-25 11:25:00,9.3,-2.8,30.36,SW,232,1.0,4.0,57,0.00,,,0.00,WeatherCatV1.00B22,2013-01-25 16:25:00,
2013-01-25 11:30:00,9.3,-3.2,30.36,North,5,3.0,4.0,56,0.00,,,0.00,WeatherCatV1.00B22,2013-01-25 16:30:00,
2013-01-25 11:35:00,9.6,-3.3,30.36,NNE,28,1.0,4.0,55,0.00,,,0.00,WeatherCatV1.00B22,2013-01-25 16:35:00,
2013-01-25 11:40:00,9.9,-3.0,30.35,NE,55,1.0,2.0,55,0.00,,,0.00,WeatherCatV1.00B22,2013-01-25 16:40:00,
2013-01-25 11:45:00,10.1,-2.8,30.35,ENE,75,2.0,3.0,55,0.00,,,0.00,WeatherCatV1.00B22,2013-01-25 16:45:00,
2013-01-25 11:50:00,9.9,-3.8,30.35,SSE,164,4.0,5.0,53,0.00,,,0.00,WeatherCatV1.00B22,2013-01-25 16:50:00,
2013-01-25 11:55:00,10.4,-2.2,30.35,South,175,1.0,4.0,56,0.00,,,0.00,WeatherCatV1.00B22,2013-01-25 16:55:00,
2013-01-25 12:00:00,11.0,-2.0,30.34,SSE,149,1.0,4.0,55,0.00,,,0.00,WeatherCatV1.00B22,2013-01-25 17:00:00,
2013-01-25 12:05:00,11.0,-2.3,30.34,ENE,58,0.0,3.0,54,0.00,,,0.00,WeatherCatV1.00B22,2013-01-25 17:05:00,
2013-01-25 12:10:00,11.2,-3.0,30.34,North,11,1.0,6.0,52,0.00,,,0.00,WeatherCatV1.00B22,2013-01-25 17:10:00,
2013-01-25 12:15:00,11.4,-2.4,30.33,South,184,1.0,5.0,53,0.00,,,0.00,WeatherCatV1.00B22,2013-01-25 17:15:00,
2013-01-25 12:20:00,11.5,-3.1,30.32,ESE,103,1.0,4.0,51,0.00,,,0.00,WeatherCatV1.00B22,2013-01-25 17:20:00,
2013-01-25 12:25:00,11.3,-2.5,30.32,ESE,103,1.0,4.0,53,0.00,,,0.00,WeatherCatV1.00B22,2013-01-25 17:25:00,
2013-01-25 12:30:00,11.4,-3.2,30.32,SE,133,2.0,4.0,51,0.00,,,0.00,WeatherCatV1.00B22,2013-01-25 17:30:00,
2013-01-25 12:35:00,11.5,-2.7,30.31,East,84,1.0,4.0,52,0.00,,,0.00,WeatherCatV1.00B22,2013-01-25 17:35:00,
2013-01-25 12:40:00,11.4,-2.4,30.31,East,84,2.0,3.0,53,0.00,,,0.00,WeatherCatV1.00B22,2013-01-25 17:40:00,
2013-01-25 12:45:00,11.7,-2.5,30.31,SE,128,1.0,3.0,52,0.00,,,0.00,WeatherCatV1.00B22,2013-01-25 17:45:00,
2013-01-25 12:50:00,11.9,-3.5,30.30,South,181,1.0,5.0,49,0.00,,,0.00,WeatherCatV1.00B22,2013-01-25 17:50:00,
2013-01-25 12:55:00,12.1,-3.8,30.30,SSE,147,0.0,1.0,48,0.00,,,0.00,WeatherCatV1.00B22,2013-01-25 17:55:00,
2013-01-25 13:00:00,12.1,-3.8,30.29,East,80,2.0,5.0,48,0.00,,,0.00,WeatherCatV1.00B22,2013-01-25 18:00:00,
2013-01-25 13:05:00,11.9,-4.4,30.29,NNE,20,0.0,4.0,47,0.00,,,0.00,WeatherCatV1.00B22,2013-01-25 18:05:00,
2013-01-25 13:10:00,12.1,-4.7,30.28,SE,129,4.0,5.0,46,0.00,,,0.00,WeatherCatV1.00B22,2013-01-25 18:10:00,
2013-01-25 13:15:00,12.6,-3.3,30.27,NNE,27,4.0,5.0,48,0.00,,,0.00,WeatherCatV1.00B22,2013-01-25 18:15:00,
2013-01-25 13:20:00,12.7,-3.7,30.27,NNE,28,1.0,1.0,47,0.00,,,0.00,WeatherCatV1.00B22,2013-01-25 18:20:00,
2013-01-25 13:25:00,13.0,-3.8,30.26,SSW,211,0.0,3.0,46,0.00,,,0.00,WeatherCatV1.00B22,2013-01-25 18:25:00,
2013-01-25 13:30:00,12.7,-4.6,30.26,West,277,2.0,3.0,45,0.00,,,0.00,WeatherCatV1.00B22,2013-01-25 18:30:00,
2013-01-25 13:35:00,12.4,-4.4,30.26,NW,317,1.0,1.0,46,0.00,,,0.00,WeatherCatV1.00B22,2013-01-25 18:35:00,
2013-01-25 13:40:00,12.5,-4.3,30.25,NNW,336,2.0,3.0,46,0.00,,,0.00,WeatherCatV1.00B22,2013-01-25 18:40:00,
2013-01-25 13:45:00,12.6,-4.2,30.26,NNW,337,0.0,1.0,46,0.00,,,0.00,WeatherCatV1.00B22,2013-01-25 18:45:00,
2013-01-25 13:50:00,12.6,-4.7,30.25,NNW,336,1.0,4.0,45,0.00,,,0.00,WeatherCatV1.00B22,2013-01-25 18:50:00,
2013-01-25 13:55:00,12.6,-3.3,30.25,North,349,1.0,3.0,48,0.00,,,0.00,WeatherCatV1.00B22,2013-01-25 18:55:00,
2013-01-25 14:00:00,12.7,-4.1,30.24,North,349,2.0,3.0,46,0.00,,,0.00,WeatherCatV1.00B22,2013-01-25 19:00:00,
2013-01-25 14:05:00,12.7,-4.1,30.24,North,350,0.0,1.0,46,0.00,,,0.00,WeatherCatV1.00B22,2013-01-25 19:05:00,
2013-01-25 14:10:00,12.9,-3.5,30.24,NNE,30,2.0,3.0,47,0.00,,,0.00,WeatherCatV1.00B22,2013-01-25 19:10:00,
2013-01-25 14:15:00,13.0,-4.3,30.24,NE,38,2.0,3.0,45,0.00,,,0.00,WeatherCatV1.00B22,2013-01-25 19:15:00,
2013-01-25 14:20:00,13.1,-4.2,30.25,NE,38,1.0,3.0,45,0.00,,,0.00,WeatherCatV1.00B22,2013-01-25 19:20:00,
2013-01-25 14:25:00,13.0,-4.3,30.24,NE,38,0.0,2.0,45,0.00,,,0.00,WeatherCatV1.00B22,2013-01-25 19:25:00,
2013-01-25 14:30:00,13.1,-3.8,30.25,NE,54,0.0,2.0,46,0.00,,,0.00,WeatherCatV1.00B22,2013-01-25 19:30:00,
2013-01-25 14:35:00,13.3,-3.1,30.24,ENE,59,2.0,4.0,47,0.00,,,0.00,WeatherCatV1.00B22,2013-01-25 19:35:00,
2013-01-25 14:40:00,13.4,-3.9,30.24,ENE,71,0.0,4.0,45,0.00,,,0.00,WeatherCatV1.00B22,2013-01-25 19:40:00,
2013-01-25 14:45:00,13.5,-3.4,30.24,ENE,71,2.0,3.0,46,0.00,,,0.00,WeatherCatV1.00B22,2013-01-25 19:45:00,
2013-01-25 14:50:00,13.5,-3.8,30.24,ENE,71,0.0,0.0,45,0.00,,,0.00,WeatherCatV1.00B22,2013-01-25 19:50:00,
2013-01-25 14:55:00,13.6,-3.8,30.23,ENE,71,3.0,3.0,45,0.00,,,0.00,WeatherCatV1.00B22,2013-01-25 19:55:00,
2013-01-25 15:00:00,13.7,-3.2,30.24,East,100,1.0,2.0,46,0.00,,,0.00,WeatherCatV1.00B22,2013-01-25 20:00:00,
2013-01-25 15:05:00,13.8,-3.1,30.23,NE,49,1.0,2.0,46,0.00,,,0.00,WeatherCatV1.00B22,2013-01-25 20:05:00,
2013-01-25 15:10:00,13.9,-3.0,30.23,NE,49,2.0,2.0,46,0.00,,,0.00,WeatherCatV1.00B22,2013-01-25 20:10:00,
2013-01-25 15:15:00,13.9,-3.5,30.23,NE,49,0.0,1.0,45,0.00,,,0.00,WeatherCatV1.00B22,2013-01-25 20:15:00,
2013-01-25 15:20:00,13.9,-3.0,30.23,NE,49,3.0,3.0,46,0.00,,,0.00,WeatherCatV1.00B22,2013-01-25 20:20:00,
2013-01-25 15:25:00,13.9,-3.0,30.23,NE,49,0.0,1.0,46,0.00,,,0.00,WeatherCatV1.00B22,2013-01-25 20:25:00,
2013-01-25 15:30:00,13.9,-3.5,30.23,NE,49,0.0,0.0,45,0.00,,,0.00,WeatherCatV1.00B22,2013-01-25 20:30:00,
2013-01-25 15:35:00,13.9,-3.0,30.23,NE,49,2.0,2.0,46,0.00,,,0.00,WeatherCatV1.00B22,2013-01-25 20:35:00,
2013-01-25 15:40:00,13.9,-3.0,30.23,NE,49,0.0,2.0,46,0.00,,,0.00,WeatherCatV1.00B22,2013-01-25 20:40:00,
2013-01-25 15:45:00,13.9,-3.0,30.23,NE,49,0.0,1.0,46,0.00,,,0.00,WeatherCatV1.00B22,2013-01-25 20:45:00,
2013-01-25 15:50:00,13.9,-3.0,30.22,NE,49,1.0,1.0,46,0.00,,,0.00,WeatherCatV1.00B22,2013-01-25 20:50:00,
2013-01-25 15:55:00,13.9,-3.5,30.22,NE,49,1.0,2.0,45,0.00,,,0.00,WeatherCatV1.00B22,2013-01-25 20:55:00,
2013-01-25 16:00:00,13.8,-4.0,30.22,NE,49,0.0,0.0,44,0.00,,,0.00,WeatherCatV1.00B22,2013-01-25 21:00:00,
2013-01-25 16:05:00,13.8,-3.6,30.22,NE,49,0.0,0.0,45,0.00,,,0.00,WeatherCatV1.00B22,2013-01-25 21:05:00,
2013-01-25 16:10:00,13.8,-3.1,30.22,NE,49,0.0,2.0,46,0.00,,,0.00,WeatherCatV1.00B22,2013-01-25 21:10:00,
2013-01-25 16:15:00,13.8,-4.0,30.22,NE,49,2.0,2.0,44,0.00,,,0.00,WeatherCatV1.00B22,2013-01-25 21:15:00,
2013-01-25 16:20:00,13.8,-3.6,30.22,NE,49,0.0,2.0,45,0.00,,,0.00,WeatherCatV1.00B22,2013-01-25 21:20:00,
2013-01-25 16:25:00,13.7,-4.1,30.22,NE,49,0.0,2.0,44,0.00,,,0.00,WeatherCatV1.00B22,2013-01-25 21:25:00,
2013-01-25 16:30:00,13.5,-3.8,30.22,NE,49,0.0,0.0,45,0.00,,,0.00,WeatherCatV1.00B22,2013-01-25 21:30:00,
2013-01-25 16:35:00,13.5,-3.8,30.22,NE,49,0.0,0.0,45,0.00,,,0.00,WeatherCatV1.00B22,2013-01-25 21:35:00,
2013-01-25 16:40:00,13.4,-3.9,30.21,NE,49,0.0,0.0,45,0.00,,,0.00,WeatherCatV1.00B22,2013-01-25 21:40:00,
2013-01-25 16:45:00,13.3,-3.6,30.22,NE,49,0.0,0.0,46,0.00,,,0.00,WeatherCatV1.00B22,2013-01-25 21:45:00,
2013-01-25 16:50:00,13.3,-3.6,30.21,NE,49,0.0,0.0,46,0.00,,,0.00,WeatherCatV1.00B22,2013-01-25 21:50:00,
2013-01-25 16:55:00,13.2,-3.2,30.21,NE,49,0.0,0.0,47,0.00,,,0.00,WeatherCatV1.00B22,2013-01-25 21:55:00,
2013-01-25 17:00:00,13.2,-3.7,30.21,NE,49,0.0,1.0,46,0.00,,,0.00,WeatherCatV1.00B22,2013-01-25 22:00:00,
2013-01-25 17:05:00,13.2,-3.2,30.22,NE,49,0.0,0.0,47,0.00,,,0.00,WeatherCatV1.00B22,2013-01-25 22:05:00,
2013-01-25 17:10:00,13.2,-3.7,30.21,NE,49,0.0,0.0,46,0.00,,,0.00,WeatherCatV1.00B22,2013-01-25 22:10:00,
2013-01-25 17:15:00,13.2,-3.2,30.21,NE,49,0.0,0.0,47,0.00,,,0.00,WeatherCatV1.00B22,2013-01-25 22:15:00,
2013-01-25 17:20:00,13.2,-2.8,30.21,NE,49,0.0,0.0,48,0.00,,,0.00,WeatherCatV1.00B22,2013-01-25 22:20:00,
2013-01-25 17:25:00,13.2,-3.7,30.20,NE,49,0.0,0.0,46,0.00,,,0.00,WeatherCatV1.00B22,2013-01-25 22:25:00,
2013-01-25 17:30:00,13.2,-2.8,30.20,NE,49,0.0,0.0,48,0.00,,,0.00,WeatherCatV1.00B22,2013-01-25 22:30:00,
2013-01-25 17:35:00,13.1,-3.3,30.20,NE,49,0.0,0.0,47,0.00,,,0.00,WeatherCatV1.00B22,2013-01-25 22:35:00,
2013-01-25 17:40:00,13.1,-3.3,30.20,NE,49,0.0,0.0,47,0.00,,,0.00,WeatherCatV1.00B22,2013-01-25 22:40:00,
2013-01-25 17:45:00,13.2,-3.2,30.19,NE,49,0.0,0.0,47,0.00,,,0.00,WeatherCatV1.00B22,2013-01-25 22:45:00,
2013-01-25 17:50:00,13.2,-3.2,30.19,NE,49,0.0,0.0,47,0.00,,,0.00,WeatherCatV1.00B22,2013-01-25 22:50:00,
2013-01-25 17:55:00,13.2,-2.8,30.19,NE,49,1.0,1.0,48,0.00,,,0.00,WeatherCatV1.00B22,2013-01-25 22:55:00,
2013-01-25 18:00:00,13.3,-2.7,30.18,NE,49,1.0,2.0,48,0.00,,,0.00,WeatherCatV1.00B22,2013-01-25 23:00:00,
2013-01-25 18:05:00,13.3,-2.7,30.18,NE,49,0.0,1.0,48,0.00,,,0.00,WeatherCatV1.00B22,2013-01-25 23:05:00,
2013-01-25 18:10:00,13.4,-2.2,30.18,NE,49,0.0,0.0,49,0.00,,,0.00,WeatherCatV1.00B22,2013-01-25 23:10:00,
2013-01-25 18:15:00,13.5,-2.1,30.17,NE,49,0.0,2.0,49,0.00,,,0.00,WeatherCatV1.00B22,2013-01-25 23:15:00,
2013-01-25 18:20:00,13.5,-2.1,30.17,NE,49,0.0,0.0,49,0.00,,,0.00,WeatherCatV1.00B22,2013-01-25 23:20:00,
2013-01-25 18:25:00,13.5,-2.1,30.16,NE,49,0.0,2.0,49,0.00,,,0.00,WeatherCatV1.00B22,2013-01-25 23:25:00,
2013-01-25 18:30:00,13.6,-2.0,30.16,ESE,117,0.0,2.0,49,0.00,,,0.00,WeatherCatV1.00B22,2013-01-25 23:30:00,
2013-01-25 18:35:00,13.7,-1.9,30.16,ESE,117,1.0,4.0,49,0.00,,,0.00,WeatherCatV1.00B22,2013-01-25 23:35:00,
2013-01-25 18:40:00,13.8,-1.4,30.16,ESE,117,2.0,2.0,50,0.00,,,0.00,WeatherCatV1.00B22,2013-01-25 23:40:00,
2013-01-25 18:45:00,13.7,-1.9,30.16,SSE,153,1.0,2.0,49,0.00,,,0.00,WeatherCatV1.00B22,2013-01-25 23:45:00,
2013-01-25 18:50:00,13.7,-1.9,30.15,SSE,153,0.0,4.0,49,0.00,,,0.00,WeatherCatV1.00B22,2013-01-25 23:50:00,
2013-01-25 18:55:00,13.9,-2.1,30.15,SSE,155,2.0,4.0,48,0.00,,,0.00,WeatherCatV1.00B22,2013-01-25 23:55:00,
2013-01-25 19:00:00,14.0,-2.0,30.15,SSE,155,2.0,4.0,48,0.00,,,0.00,WeatherCatV1.00B22,2013-01-26 00:00:00,
2013-01-25 19:05:00,14.0,-2.0,30.15,SSE,155,2.0,2.0,48,0.00,,,0.00,WeatherCatV1.00B22,2013-01-26 00:05:00,
2013-01-25 19:10:00,14.2,-1.8,30.15,SSE,155,0.0,2.0,48,0.00,,,0.00,WeatherCatV1.00B22,2013-01-26 00:10:00,
2013-01-25 19:15:00,14.3,-0.9,30.15,SSE,155,1.0,1.0,50,0.00,,,0.00,WeatherCatV1.00B22,2013-01-26 00:15:00,
2013-01-25 19:20:00,14.4,-0.8,30.15,SSE,155,0.0,1.0,50,0.00,,,0.00,WeatherCatV1.00B22,2013-01-26 00:20:00,
2013-01-25 19:25:00,14.4,0.4,30.15,SSE,155,1.0,4.0,53,0.00,,,0.00,WeatherCatV1.00B22,2013-01-26 00:25:00,
2013-01-25 19:30:00,14.4,0.8,30.15,SSE,155,1.0,4.0,54,0.00,,,0.00,WeatherCatV1.00B22,2013-01-26 00:30:00,
2013-01-25 19:35:00,14.4,1.6,30.15,SSE,155,0.0,0.0,56,0.00,,,0.00,WeatherCatV1.00B22,2013-01-26 00:35:00,
2013-01-25 19:40:00,14.3,3.7,30.15,SSE,155,0.0,1.0,62,0.00,,,0.00,WeatherCatV1.00B22,2013-01-26 00:40:00,
2013-01-25 19:45:00,14.1,5.2,30.15,SSE,155,0.0,1.0,67,0.00,,,0.00,WeatherCatV1.00B22,2013-01-26 00:45:00,
2013-01-25 19:50:00,13.8,6.2,30.15,SSE,155,0.0,1.0,71,0.00,,,0.00,WeatherCatV1.00B22,2013-01-26 00:50:00,
2013-01-25 19:55:00,13.6,6.6,30.15,SSE,155,0.0,0.0,73,0.00,,,0.00,WeatherCatV1.00B22,2013-01-26 00:55:00,
2013-01-25 20:00:00,13.4,7.0,30.15,SSE,155,0.0,1.0,75,0.00,,,0.00,WeatherCatV1.00B22,2013-01-26 01:00:00,
2013-01-25 20:05:00,13.1,7.0,30.15,SSE,155,0.0,1.0,76,0.00,,,0.00,WeatherCatV1.00B22,2013-01-26 01:05:00,
2013-01-25 20:10:00,12.9,6.8,30.15,SSE,155,0.0,0.0,76,0.00,,,0.00,WeatherCatV1.00B22,2013-01-26 01:10:00,
2013-01-25 20:15:00,12.8,7.0,30.14,SSE,155,0.0,1.0,77,0.00,,,0.00,WeatherCatV1.00B22,2013-01-26 01:15:00,
2013-01-25 20:20:00,12.7,7.2,30.14,SSE,155,0.0,0.0,78,0.00,,,0.00,WeatherCatV1.00B22,2013-01-26 01:20:00,
2013-01-25 20:25:00,12.6,7.1,30.14,SSE,155,0.0,0.0,78,0.00,,,0.00,WeatherCatV1.00B22,2013-01-26 01:25:00,
2013-01-25 20:30:00,12.6,7.3,30.14,SSE,155,0.0,0.0,79,0.00,,,0.00,WeatherCatV1.00B22,2013-01-26 01:30:00,
2013-01-25 20:35:00,12.5,7.2,30.13,SSE,155,1.0,1.0,79,0.00,,,0.00,WeatherCatV1.00B22,2013-01-26 01:35:00,
2013-01-25 20:40:00,12.5,7.5,30.13,SSE,155,0.0,1.0,80,0.00,,,0.00,WeatherCatV1.00B22,2013-01-26 01:40:00,
2013-01-25 20:45:00,12.3,7.3,30.13,SSE,155,0.0,2.0,80,0.00,,,0.00,WeatherCatV1.00B22,2013-01-26 01:45:00,
2013-01-25 20:50:00,12.3,7.6,30.13,SSE,155,0.0,2.0,81,0.00,,,0.00,WeatherCatV1.00B22,2013-01-26 01:50:00,
2013-01-25 20:55:00,12.2,7.5,30.13,SSE,155,0.0,1.0,81,0.00,,,0.00,WeatherCatV1.00B22,2013-01-26 01:55:00,
2013-01-25 21:00:00,12.1,7.4,30.13,SSE,155,0.0,0.0,81,0.00,,,0.00,WeatherCatV1.00B22,2013-01-26 02:00:00,
2013-01-25 21:05:00,12.1,7.4,30.13,SSE,155,0.0,0.0,81,0.00,,,0.00,WeatherCatV1.00B22,2013-01-26 02:05:00,
2013-01-25 21:10:00,12.1,7.4,30.13,SSE,155,1.0,1.0,81,0.00,,,0.00,WeatherCatV1.00B22,2013-01-26 02:10:00,
2013-01-25 21:15:00,12.1,7.4,30.12,SSE,155,0.0,0.0,81,0.00,,,0.00,WeatherCatV1.00B22,2013-01-26 02:15:00,
2013-01-25 21:20:00,12.0,7.6,30.12,SSE,155,0.0,0.0,82,0.00,,,0.00,WeatherCatV1.00B22,2013-01-26 02:20:00,
2013-01-25 21:25:00,12.1,7.7,30.12,SSE,155,0.0,1.0,82,0.00,,,0.00,WeatherCatV1.00B22,2013-01-26 02:25:00,
2013-01-25 21:30:00,12.0,7.6,30.12,SSE,155,0.0,1.0,82,0.00,,,0.00,WeatherCatV1.00B22,2013-01-26 02:30:00,
2013-01-25 21:35:00,11.9,7.5,30.12,SSE,155,0.0,0.0,82,0.00,,,0.00,WeatherCatV1.00B22,2013-01-26 02:35:00,
2013-01-25 21:40:00,11.9,7.5,30.11,SSE,155,0.0,0.0,82,0.00,,,0.00,WeatherCatV1.00B22,2013-01-26 02:40:00,
2013-01-25 21:45:00,11.8,7.7,30.11,SSE,155,0.0,2.0,83,0.00,,,0.00,WeatherCatV1.00B22,2013-01-26 02:45:00,
2013-01-25 21:50:00,11.8,7.7,30.11,SSE,155,0.0,1.0,83,0.00,,,0.00,WeatherCatV1.00B22,2013-01-26 02:50:00,
2013-01-25 21:55:00,11.8,7.7,30.11,SSE,155,1.0,2.0,83,0.00,,,0.00,WeatherCatV1.00B22,2013-01-26 02:55:00,
2013-01-25 22:00:00,11.8,7.7,30.11,SSE,155,1.0,1.0,83,0.00,,,0.00,WeatherCatV1.00B22,2013-01-26 03:00:00,
2013-01-25 22:05:00,11.8,7.9,30.11,SSE,155,0.0,1.0,84,0.00,,,0.00,WeatherCatV1.00B22,2013-01-26 03:05:00,
2013-01-25 22:10:00,11.8,7.9,30.12,SSE,155,0.0,1.0,84,0.00,,,0.00,WeatherCatV1.00B22,2013-01-26 03:10:00,
2013-01-25 22:15:00,11.8,7.9,30.11,SSE,155,0.0,1.0,84,0.00,,,0.00,WeatherCatV1.00B22,2013-01-26 03:15:00,
2013-01-25 22:20:00,11.9,8.0,30.12,SSE,155,0.0,0.0,84,0.00,,,0.00,WeatherCatV1.00B22,2013-01-26 03:20:00,
2013-01-25 22:25:00,11.9,8.0,30.11,SSE,155,0.0,0.0,84,0.00,,,0.00,WeatherCatV1.00B22,2013-01-26 03:25:00,
2013-01-25 22:30:00,11.9,8.0,30.12,SSE,155,0.0,0.0,84,0.00,,,0.00,WeatherCatV1.00B22,2013-01-26 03:30:00,
2013-01-25 22:35:00,11.9,8.3,30.12,SSE,155,0.0,1.0,85,0.00,,,0.00,WeatherCatV1.00B22,2013-01-26 03:35:00,
2013-01-25 22:40:00,11.8,7.9,30.12,SSE,155,0.0,0.0,84,0.00,,,0.00,WeatherCatV1.00B22,2013-01-26 03:40:00,
2013-01-25 22:45:00,11.8,8.2,30.12,SSE,155,0.0,0.0,85,0.00,,,0.00,WeatherCatV1.00B22,2013-01-26 03:45:00,
2013-01-25 22:50:00,11.8,8.2,30.12,SSE,155,0.0,2.0,85,0.00,,,0.00,WeatherCatV1.00B22,2013-01-26 03:50:00,
2013-01-25 22:55:00,11.7,7.8,30.12,SSE,155,2.0,2.0,84,0.00,,,0.00,WeatherCatV1.00B22,2013-01-26 03:55:00,
2013-01-25 23:00:00,11.6,7.7,30.11,SSE,155,0.0,1.0,84,0.00,,,0.00,WeatherCatV1.00B22,2013-01-26 04:00:00,
2013-01-25 23:05:00,11.6,7.7,30.12,SSE,155,0.0,0.0,84,0.00,,,0.00,WeatherCatV1.00B22,2013-01-26 04:05:00,
2013-01-25 23:10:00,11.5,7.6,30.11,SSE,155,0.0,0.0,84,0.00,,,0.00,WeatherCatV1.00B22,2013-01-26 04:10:00,
2013-01-25 23:15:00,11.5,7.6,30.11,SSE,155,0.0,1.0,84,0.00,,,0.00,WeatherCatV1.00B22,2013-01-26 04:15:00,
2013-01-25 23:20:00,11.4,7.8,30.11,SSE,155,0.0,0.0,85,0.00,,,0.00,WeatherCatV1.00B22,2013-01-26 04:20:00,
2013-01-25 23:25:00,11.4,7.8,30.11,SSE,155,0.0,1.0,85,0.00,,,0.00,WeatherCatV1.00B22,2013-01-26 04:25:00,
2013-01-25 23:30:00,11.4,7.8,30.11,SSE,155,0.0,0.0,85,0.00,,,0.00,WeatherCatV1.00B22,2013-01-26 04:30:00,
2013-01-25 23:35:00,11.4,7.8,30.11,SSE,155,0.0,0.0,85,0.00,,,0.00,WeatherCatV1.00B22,2013-01-26 04:35:00,
2013-01-25 23:40:00,11.3,7.7,30.11,SSE,155,0.0,2.0,85,0.00,,,0.00,WeatherCatV1.00B22,2013-01-26 04:40:00,
2013-01-25 23:45:00,11.3,7.7,30.11,SSE,155,0.0,1.0,85,0.00,,,0.00,WeatherCatV1.00B22,2013-01-26 04:45:00,
2013-01-25 23:50:00,11.3,7.9,30.11,SSE,155,0.0,1.0,86,0.00,,,0.00,WeatherCatV1.00B22,2013-01-26 04:50:00,
2013-01-25 23:55:00,11.3,7.9,30.11,SSE,155,0.0,0.0,86,0.00,,,0.00,WeatherCatV1.00B22,2013-01-26 04:55:00,